Temperature
17 14 14 14 14 15 16 16 15 15 16 16 15 14 15 16 16 16 17 17 17 18 18 19 19 19 18 18 17 17 16 15 14 13 13 12 12 11 11 10 10 9 9 8
14 14 14 15 16 16 16 16 15 14 15 15 14 13 14 15 16 16 16 16 17 17 18 18 18 18 18 17 17 16 16 15 14 14 13 13 12 11 11 10 9 9 9 8
15 15 16 17 17 17 16 15 15 15 13 13 14 14 14 15 15 15 16 16 16 16 16 17 17 17 16 16 16 15 15 14 14 13 13 12 11 11 10 10 10 10 9 8
14 15 17 17 17 17 15 16 15 15 13 12 13 13 14 15 15 14 14 15 15 16 16 16 16 16 16 15 15 15 14 14 13 13 12 12 11 11 11 10 10 9 9 8
15 16 17 17 16 16 16 15 15 14 13 12 12 12 12 14 15 14 14 14 15 15 15 15 15 15 15 15 14 14 14 13 12 12 11 11 11 10 10 9 9 9 8 8
15 16 17 16 16 16 15 14 13 11 10 12 13 12 13 12 14 13 13 14 14 14 14 14 14 14 14 14 14 13 13 13 12 12 11 11 10 10 9 9 9 8 8 7
16 16 16 16 15 15 14 13 13 14 12 13 13 13 13 14 13 13 13 14 14 14 14 13 13 13 13 13 13 13 12 12 12 12 11 11 10 10 9 9 9 8 8 7
15 15 15 15 15 15 14 13 13 14 12 12 12 13 13 13 13 14 14 14 14 13 13 13 13 13 13 12 12 12 12 11 11 11 10 10 10 9 9 9 8 8 8 7
14 15 15 14 15 15 15 13 12 11 12 12 11 12 13 13 12 12 13 13 13 13 13 13 12 12 12 12 12 11 11 11 11 10 10 9 9 9 9 8 8 8 7 7
15 15 15 14 14 14 14 12 11 12 12 11 11 12 13 13 12 11 11 12 13 13 13 12 12 12 12 11 11 11 10 10 10 9 9 9 8 8 8 8 8 7 7 7
16 14 14 13 13 13 13 13 12 10 10 10 11 11 13 13 12 11 11 13 13 13 12 12 12 11 11 11 10 10 10 10 9 9 8 8 8 8 7 7 7 7 7 6
14 12 12 12 13 12 12 12 11 11 11 9 9 11 13 12 12 12 12 13 12 12 12 11 11 11 10 10 10 10 9 9 8 8 8 7 7 7 7 7 6 6 6 6
13 12 12 13 13 13 13 13 12 11 10 8 9 11 12 11 11 12 12 12 12 11 11 11 10 10 10 9 9 9 8 8 7 7 7 7 6 6 6 6 6 5 5 5
12 11 12 13 12 13 13 13 13 11 9 8 9 11 12 11 11 11 11 11 11 10 10 10 9 9 9 8 8 8 7 7 7 6 6 6 6 5 5 5 5 4 4 4
11 11 11 11 11 11 11 11 11 10 10 10 10 10 11 11 10 10 10 10 10 9 9 9 8 8 8 7 7 7 6 6 6 6 5 5 5 5 5 4 4 4 3 3
10 11 11 11 11 10 10 10 10 10 10 9 10 10 10 10 10 10 10 9 9 8 8 8 7 7 7 6 6 6 6 5 5 5 5 5 4 4 4 3 3 3 2 2
8 9 9 8 9 9 9 10 10 9 10 9 10 10 9 9 9 10 9 8 8 8 7 7 6 6 6 5 5 5 5 5 4 4 4 4 3 3 3 2 2 1 1 1
8 8 7 7 9 8 10 10 11 10 10 10 9 9 9 9 9 9 9 8 7 7 6 6 6 5 5 5 4 4 4 4 4 3 3 2 2 2 1 1 1 0 -0 -0
8 8 7 6 7 7 8 10 11 10 9 9 8 8 8 8 8 8 8 7 7 6 6 5 5 5 4 4 4 4 4 3 3 2 2 1 1 0 0 -0 -0 -1 -1 -1
6 7 6 5 7 7 9 11 11 11 9 9 8 7 7 7 5 6 8 7 6 5 5 5 4 4 4 4 3 3 3 2 2 1 0 0 -0 -1 -1 -1 -1 -1 -2 -2
6 6 5 5 6 7 8 10 11 9 8 8 8 8 7 6 6 7 6 6 5 5 4 4 4 4 3 3 2 2 2 1 1 0 -0 -0 -1 -1 -2 -2 -2 -2 -2 -2
6 5 4 4 5 7 9 10 9 8 8 8 8 7 7 6 6 6 5 5 5 4 4 4 3 3 3 2 2 1 1 1 0 -0 -1 -1 -1 -2 -2 -2 -2 -3 -3 -3
6 6 6 6 8 9 9 9 9 9 8 7 7 6 6 5 5 5 5 4 4 4 4 3 2 2 2 2 1 1 0 -0 -1 -1 -2 -2 -2 -2 -3 -3 -3 -3 -3 -4
6 6 5 6 6 8 8 8 7 7 7 6 6 5 5 5 4 4 4 4 4 3 3 2 2 2 1 1 1 0 -0 -1 -2 -2 -2 -3 -3 -3 -3 -4 -4 -4 -5 -5
7 7 6 6 6 7 6 6 6 6 6 6 6 5 5 4 4 4 3 3 3 3 2 2 1 1 1 1 0 -0 -1 -2 -2 -3 -3 -3 -4 -4 -4 -4 -5 -5 -5 -5
5 6 6 6 7 6 7 6 6 6 6 5 5 5 5 4 4 3 3 3 2 2 2 1 1 1 0 0 -0 -1 -2 -3 -3 -4 -4 -4 -4 -5 -5 -6 -6 -5 -5 -5
Wind_Speed
1 3 4 7 9 7 5 5 8 8 5 4 8 12 14 6 2 4 5 8 9 8 8 9 5 1 5 8 11 13 14 14 11 8 9 10 12 10 8 14 19 21 22 23
4 5 10 7 6 6 5 5 7 7 5 4 7 10 8 1 4 4 6 7 8 9 11 11 9 6 1 5 8 10 12 12 13 13 11 7 7 6 7 8 14 20 22 22
7 7 4 5 4 4 5 6 5 5 8 6 5 8 6 5 4 5 5 5 6 7 8 9 9 7 4 1 4 7 9 11 12 11 6 3 2 2 4 7 8 14 21 22
7 6 4 4 5 4 5 3 2 2 5 6 4 3 5 2 1 3 4 5 5 6 7 7 8 7 6 4 2 2 5 7 8 8 8 10 10 11 11 10 10 10 17 20
5 3 4 5 5 4 4 0 2 0 1 4 2 3 7 3 5 4 2 2 2 4 6 6 7 7 7 6 5 3 0 3 5 7 10 10 12 13 9 7 9 10 10 15
7 3 3 4 1 1 2 5 5 5 4 3 3 5 6 6 8 7 4 3 1 3 4 5 6 6 7 7 6 5 3 1 3 6 8 10 13 13 11 10 10 10 9 10
3 2 1 2 2 2 5 5 5 5 4 5 4 3 8 7 6 9 9 6 3 1 2 3 6 7 7 7 6 5 4 3 3 4 7 9 12 12 14 13 12 11 10 10
2 5 5 4 5 4 3 6 5 3 4 6 6 5 7 5 5 7 6 5 3 2 1 1 2 3 4 5 5 5 4 4 4 4 6 8 9 8 10 11 11 11 11 11
6 4 1 2 1 5 3 4 6 5 1 4 7 7 6 5 6 4 4 4 4 3 2 0 2 2 3 4 4 4 4 5 6 6 6 7 7 8 10 11 9 10 11 10
7 3 1 1 3 2 2 6 5 4 2 4 7 6 4 5 5 5 5 6 5 4 3 2 2 2 3 3 4 4 4 5 5 6 6 6 7 8 8 8 9 10 11 10
4 4 1 1 6 7 5 4 4 4 4 5 4 7 5 7 7 7 7 6 6 5 4 4 4 4 4 4 5 5 5 5 6 6 6 7 8 8 7 8 9 10 10 10
4 5 3 6 4 4 7 8 8 4 5 5 4 8 5 5 6 6 5 4 3 3 3 4 4 5 5 6 7 6 6 6 7 6 7 7 8 8 8 9 10 10 10 10
6 5 1 5 2 0 2 5 6 5 4 5 5 8 1 2 2 2 2 1 1 3 4 4 5 6 7 7 7 7 7 7 7 7 7 8 8 9 9 10 10 10 10 10
6 5 7 7 6 4 4 5 5 6 5 7 10 11 7 6 3 1 1 1 3 4 4 5 5 6 7 7 7 7 8 7 8 7 8 9 10 10 10 10 10 10 10 10
6 5 6 7 6 5 8 10 9 11 10 11 10 10 11 7 3 3 1 3 4 5 6 6 6 7 7 8 8 7 8 8 8 8 9 10 10 10 10 10 10 10 10 11
4 5 3 4 6 7 10 14 13 12 10 11 11 11 3 3 4 3 3 3 4 5 7 8 8 8 8 8 8 8 8 9 8 9 10 11 11 11 11 11 11 11 11 11
6 7 4 4 5 8 10 10 8 7 7 8 9 5 4 3 2 1 1 2 3 6 8 8 8 8 9 8 7 8 8 9 9 10 11 11 11 12 12 12 11 12 12 11
8 8 5 2 1 9 9 4 4 4 1 2 5 5 4 2 2 2 4 1 5 7 7 7 7 7 7 7 8 8 9 10 10 11 11 12 11 12 12 12 13 13 11 11
6 8 5 4 4 9 10 6 3 4 2 2 6 4 2 2 2 3 4 2 4 6 6 6 6 6 7 9 9 9 10 10 11 12 12 12 12 13 13 13 14 13 12 12
4 5 6 5 5 8 8 4 1 3 3 2 4 3 1 1 4 5 5 5 7 7 6 6 6 7 9 10 9 10 11 11 12 13 12 12 12 13 15 15 14 13 12 13
4 4 6 6 6 9 8 5 2 3 5 3 3 3 2 3 6 7 7 7 7 7 7 7 7 8 9 10 9 11 12 13 14 13 13 13 12 13 14 14 12 13 13 13
9 7 7 7 6 10 4 4 5 5 3 4 3 3 5 7 8 8 7 7 7 7 7 7 8 9 10 10 10 13 14 15 14 13 14 14 13 12 12 13 14 12 13 13
8 9 8 10 9 3 2 5 4 5 4 3 4 6 7 7 6 6 6 7 7 8 8 8 9 11 11 10 10 14 17 16 16 15 14 14 14 12 11 13 14 13 11 11
4 4 5 5 6 3 5 5 3 3 4 5 6 6 5 6 7 7 7 7 7 8 9 8 10 12 14 12 11 12 15 16 15 16 15 13 14 13 11 10 11 12 12 12
6 5 4 5 4 3 5 5 5 5 4 3 3 3 4 5 7 7 6 8 8 8 8 8 10 13 16 15 14 13 13 14 15 15 14 13 12 13 13 11 11 13 11 14
5 7 7 7 5 5 4 4 3 2 1 3 3 4 4 4 6 7 7 8 8 9 10 11 12 13 15 15 15 14 13 12 14 15 14 12 11 11 11 13 14 18 19 24
Wind_Direction
25 81 221 223 209 214 228 244 270 267 285 299 265 277 291 306 67 78 49 36 31 13 347 355 353 208 188 195 198 200 202 202 189 187 196 204 215 213 212 215 214 213 213 211
22 261 239 225 215 215 230 266 280 295 334 315 292 298 306 30 116 109 78 50 36 20 12 10 18 34 149 205 208 205 204 198 197 204 204 203 211 216 217 218 218 216 215 215
222 245 240 192 216 245 258 241 257 289 328 347 350 346 4 33 65 61 48 42 35 36 24 11 15 23 23 306 228 218 212 204 203 200 186 178 171 264 224 223 224 218 217 217
238 248 206 206 229 205 268 242 227 314 6 313 21 308 281 270 78 63 47 40 38 33 31 22 17 16 9 347 324 243 215 208 204 189 190 198 212 226 228 227 229 222 218 220
264 213 198 221 228 192 236 291 258 237 93 319 310 192 278 238 196 201 171 97 56 42 40 29 20 17 12 9 18 15 126 211 202 198 204 211 228 238 244 237 236 234 227 226
247 249 215 209 165 150 50 44 51 52 64 319 247 176 271 220 204 189 190 186 131 57 40 26 17 23 17 16 23 27 28 313 221 211 217 223 236 245 252 249 245 245 240 234
294 261 235 137 125 63 71 63 11 348 0 270 285 224 254 252 200 171 173 182 187 127 47 21 27 24 17 16 11 9 7 331 289 236 234 234 241 246 250 254 252 252 251 245
269 281 231 197 186 184 179 138 158 237 261 292 319 259 273 325 95 120 141 164 178 183 242 359 22 19 4 6 6 356 343 318 305 274 259 252 248 250 255 256 254 255 256 254
195 259 40 154 197 162 159 170 171 143 259 276 289 296 324 38 75 105 141 170 194 209 219 310 357 3 353 351 345 331 320 308 302 287 279 274 263 254 257 263 260 261 262 262
160 229 276 37 68 29 146 145 105 136 213 272 294 288 234 202 200 187 197 204 215 224 240 262 303 325 335 331 325 325 306 291 289 289 280 275 273 266 265 270 270 266 267 266
134 175 271 349 204 205 163 179 155 145 164 179 264 275 233 203 193 189 208 216 221 233 250 276 301 321 328 329 326 320 313 306 302 296 288 285 284 283 281 274 272 271 272 271
129 128 237 259 251 211 186 186 154 169 227 192 202 267 281 170 172 181 200 221 240 257 277 294 308 326 329 324 320 317 310 304 297 295 294 290 289 291 288 282 278 276 274 272
131 118 11 338 326 53 206 189 175 151 150 183 197 259 269 123 140 154 160 189 296 316 325 334 337 328 318 312 310 309 305 300 298 300 301 300 298 295 290 285 283 281 277 276
116 142 182 214 211 195 245 239 207 173 199 229 225 246 270 285 291 172 96 24 357 352 351 346 330 317 309 305 303 303 303 303 304 306 305 301 297 293 289 287 286 283 280 278
118 183 224 245 245 234 241 248 236 220 215 229 243 244 259 263 226 162 79 25 31 15 355 335 319 309 307 307 306 306 306 307 308 309 306 301 298 296 294 292 288 285 282 279
120 167 202 279 277 280 275 262 249 239 228 234 254 268 272 121 118 97 53 51 27 345 324 316 311 310 309 308 307 309 308 308 310 309 304 301 301 301 299 295 291 288 284 281
153 149 155 263 306 342 282 255 234 223 220 207 227 228 125 102 92 76 111 80 333 307 302 304 305 302 302 303 304 306 302 306 309 305 301 301 301 300 296 295 293 289 286 282
151 150 158 213 359 252 246 241 226 218 266 138 123 117 124 164 244 220 172 210 301 296 298 301 301 301 301 302 305 303 304 307 306 303 301 300 300 298 296 294 292 290 286 283
161 149 150 160 224 275 289 280 218 171 160 106 129 138 168 255 309 282 216 268 282 287 290 289 291 291 298 303 303 307 308 307 305 302 300 298 297 298 298 296 293 291 289 287
73 133 145 157 197 244 253 266 304 88 209 196 142 149 193 79 346 280 273 303 298 299 298 299 303 303 307 306 310 310 308 308 305 302 299 296 295 296 297 296 295 293 289 289
122 142 173 178 217 260 254 255 133 193 235 169 153 171 193 210 232 253 282 286 283 289 292 299 304 304 301 303 308 306 305 303 301 299 298 296 293 293 295 295 294 295 294 292
171 169 183 166 200 250 247 146 163 195 154 155 180 214 237 245 259 272 279 279 289 295 299 303 303 301 300 302 305 305 304 302 302 300 298 296 294 295 299 297 298 295 294 295
193 188 182 192 210 234 119 128 134 142 154 188 219 241 248 259 268 277 279 285 290 292 295 297 297 299 300 298 296 299 303 304 305 303 300 298 297 294 292 294 298 299 296 295
244 170 165 223 253 176 135 127 132 161 185 217 234 249 252 263 274 281 283 287 292 293 296 297 301 304 306 305 297 290 297 302 303 303 302 301 301 301 297 292 293 295 296 295
224 164 177 238 251 140 161 181 193 196 201 221 250 251 257 268 278 279 285 288 289 292 292 293 295 300 303 306 303 298 297 301 302 302 301 302 299 299 302 297 293 294 287 288
205 184 188 228 222 185 210 201 188 181 248 269 279 287 281 268 275 283 284 283 286 290 293 296 296 297 301 304 305 305 302 299 301 306 306 304 302 301 302 303 302 297 296 297
Height
1539 1543 1545 1541 1540 1539 1539 1541 1543 1537 1528 1528 1527 1524 1516 1513 1513 1512 1511 1509 1508 1507 1506 1504 1502 1501 1501 1501 1503 1505 1507 1509 1511 1512 1513 1514 1514 1515 1516 1517 1518 1519 1520 1521
1543 1543 1535 1534 1535 1536 1537 1540 1540 1534 1528 1529 1527 1524 1516 1512 1514 1514 1513 1512 1510 1508 1506 1504 1503 1501 1501 1501 1501 1503 1504 1506 1507 1508 1509 1510 1511 1511 1512 1513 1512 1513 1513 1513
1542 1536 1530 1532 1533 1535 1536 1537 1536 1536 1533 1529 1528 1526 1520 1516 1515 1515 1515 1514 1512 1510 1508 1506 1504 1503 1502 1501 1501 1501 1502 1503 1504 1505 1506 1506 1507 1506 1506 1506 1506 1506 1506 1506
1536 1530 1530 1531 1532 1533 1538 1531 1532 1533 1538 1541 1536 1542 1527 1520 1518 1517 1516 1515 1514 1512 1510 1508 1506 1504 1503 1502 1501 1500 1500 1501 1502 1503 1503 1502 1501 1500 1499 1500 1500 1500 1499 1498
1533 1529 1529 1531 1530 1530 1531 1530 1532 1533 1537 1543 1539 1542 1533 1521 1521 1518 1517 1516 1515 1513 1512 1509 1507 1506 1504 1503 1501 1500 1500 1500 1500 1500 1500 1499 1497 1496 1495 1494 1493 1492 1491 1490
1530 1527 1526 1527 1527 1528 1530 1533 1535 1541 1545 1545 1535 1541 1532 1523 1517 1516 1516 1516 1515 1514 1513 1511 1509 1508 1506 1505 1503 1502 1501 1500 1499 1498 1497 1496 1494 1492 1491 1488 1487 1485 1484 1482
1529 1527 1525 1526 1528 1530 1532 1541 1549 1545 1550 1543 1533 1534 1528 1513 1509 1511 1513 1515 1516 1515 1514 1512 1511 1509 1507 1506 1505 1503 1502 1501 1499 1498 1496 1494 1492 1489 1486 1484 1481 1479 1476 1474
1534 1535 1526 1525 1527 1530 1532 1539 1550 1552 1554 1548 1535 1532 1522 1512 1508 1511 1513 1515 1516 1515 1514 1513 1511 1510 1508 1507 1505 1504 1502 1500 1499 1497 1494 1492 1489 1486 1483 1480 1476 1473 1470 1467
1533 1531 1525 1525 1525 1527 1531 1537 1538 1549 1549 1551 1543 1532 1520 1514 1514 1514 1515 1516 1516 1515 1514 1513 1512 1510 1509 1507 1505 1503 1501 1499 1497 1494 1492 1489 1486 1482 1479 1475 1472 1468 1464 1461
1523 1529 1526 1526 1526 1527 1529 1534 1543 1547 1552 1555 1547 1537 1527 1519 1517 1517 1516 1515 1515 1515 1514 1513 1512 1510 1508 1506 1504 1502 1499 1496 1494 1491 1488 1484 1481 1478 1474 1470 1466 1462 1458 1455
1519 1529 1530 1529 1529 1529 1533 1534 1537 1546 1550 1555 1554 1539 1516 1513 1513 1515 1514 1514 1514 1514 1513 1512 1511 1509 1507 1505 1502 1499 1496 1493 1490 1487 1483 1479 1476 1472 1468 1464 1460 1456 1452 1447
1520 1530 1535 1530 1525 1525 1527 1529 1535 1543 1544 1548 1552 1539 1511 1510 1511 1512 1512 1513 1513 1513 1512 1511 1509 1507 1505 1502 1499 1496 1493 1489 1486 1482 1478 1474 1470 1466 1462 1458 1454 1449 1444 1440
1520 1530 1537 1533 1531 1526 1525 1525 1529 1533 1540 1548 1549 1532 1512 1511 1511 1511 1512 1512 1512 1511 1510 1509 1507 1505 1502 1499 1496 1492 1488 1485 1481 1477 1473 1469 1465 1460 1456 1451 1446 1441 1436 1431
1517 1527 1533 1533 1531 1525 1525 1523 1524 1531 1539 1540 1534 1521 1513 1510 1510 1511 1511 1511 1510 1509 1508 1506 1504 1502 1499 1495 1491 1487 1484 1480 1476 1471 1467 1463 1458 1454 1449 1444 1438 1433 1428 1422
1516 1526 1526 1525 1524 1524 1524 1523 1522 1525 1525 1526 1518 1516 1509 1507 1508 1509 1509 1509 1508 1507 1506 1503 1501 1498 1494 1490 1486 1483 1479 1475 1470 1466 1461 1457 1452 1447 1441 1436 1430 1425 1419 1413
1517 1523 1524 1524 1521 1522 1521 1515 1514 1514 1514 1514 1511 1509 1505 1505 1506 1507 1507 1507 1506 1505 1503 1500 1497 1493 1489 1485 1481 1478 1474 1470 1465 1460 1456 1450 1445 1439 1433 1427 1421 1415 1409 1403
1519 1523 1528 1531 1526 1524 1521 1507 1506 1506 1504 1505 1507 1506 1505 1506 1506 1506 1505 1505 1504 1502 1499 1495 1492 1488 1485 1481 1477 1473 1469 1464 1459 1454 1449 1443 1437 1430 1424 1418 1411 1405 1399 1392
1516 1522 1529 1532 1528 1530 1509 1500 1499 1500 1500 1500 1501 1504 1504 1505 1505 1504 1503 1502 1500 1497 1494 1491 1487 1484 1481 1477 1473 1468 1464 1458 1453 1447 1441 1435 1428 1421 1415 1408 1402 1395 1389 1383
1510 1517 1527 1534 1532 1522 1507 1498 1495 1498 1501 1501 1502 1503 1503 1503 1502 1501 1500 1499 1496 1493 1490 1487 1484 1480 1476 1472 1468 1462 1457 1451 1445 1439 1432 1426 1420 1413 1406 1399 1393 1386 1380 1373
1511 1512 1523 1531 1529 1523 1504 1495 1493 1497 1503 1501 1500 1501 1501 1500 1503 1500 1497 1495 1492 1489 1486 1483 1479 1476 1472 1467 1462 1456 1450 1444 1437 1431 1425 1419 1412 1406 1398 1391 1384 1378 1371 1364
1515 1517 1521 1525 1525 1512 1497 1493 1494 1504 1502 1500 1498 1499 1499 1498 1498 1496 1493 1490 1488 1485 1482 1478 1475 1471 1467 1462 1456 1449 1443 1437 1430 1424 1417 1410 1404 1398 1390 1383 1376 1369 1362 1355
1507 1516 1519 1522 1523 1510 1491 1491 1495 1497 1496 1496 1496 1496 1496 1494 1492 1490 1488 1486 1483 1480 1477 1474 1470 1466 1461 1456 1450 1442 1436 1430 1423 1415 1408 1401 1395 1389 1382 1374 1366 1360 1353 1346
1498 1497 1500 1502 1498 1492 1489 1490 1492 1493 1494 1494 1494 1493 1492 1490 1488 1486 1483 1481 1478 1475 1472 1468 1464 1459 1454 1450 1444 1437 1429 1422 1414 1407 1399 1392 1386 1379 1373 1366 1358 1351 1345 1339
1491 1489 1493 1494 1489 1488 1489 1489 1491 1491 1492 1491 1490 1489 1487 1485 1483 1481 1479 1476 1473 1470 1467 1463 1458 1452 1446 1441 1436 1430 1423 1415 1407 1398 1390 1383 1377 1369 1363 1357 1351 1344 1337 1332
1486 1487 1489 1489 1486 1487 1489 1489 1489 1489 1488 1487 1486 1485 1483 1481 1479 1477 1474 1471 1468 1465 1461 1457 1452 1446 1439 1433 1427 1421 1415 1407 1398 1390 1382 1375 1369 1362 1354 1348 1343 1336 1330 1327
1482 1483 1486 1485 1482 1484 1485 1485 1485 1485 1484 1483 1482 1481 1479 1478 1475 1473 1470 1467 1463 1459 1455 1450 1445 1439 1432 1425 1419 1413 1406 1399 1391 1382 1374 1367 1361 1354 1347 1339 1332 1328 1324 1318